Content
SEND FEEDBACK

Daily
Averages
Monthly
Summary
United States of America

TOMBSTONE, ARIZONA


Home > North America > United States > Arizona
Elevation: 4392 feet     Latitude: 31 43N     Longitude: 110 04W

WEATHER
 
SELECT A DAY
Number of Records: 122,308;   Date Range: 1/3/95 - 9/18/14
 
SHARE

PRINT THIS DATA

[ ← Previous Day ]
WEATHER ALMANAC - APRIL 10, 2014
[ Next Day → ]
[ °C ]   °F
Weather ElementAverageHighLow
Temperature72.3 °F86 °F (1:55 pm)59 °F (5:55 am)
Dewpoint-7.8 °F6.8 °F (11:55 pm)-34.6 °F (1:55 pm)
Humidity6 %9 % (1:55 am)4 % (12:55 pm)
Barometer29.95 in30.03 in (7:55 am)29.89 in (3:55 pm)
Wind Speed9 mph16.1 mph (4:55 pm)
Wind Gust26.5 mph (1:55 pm)
Weather ElementAverage
Visibility10 mi
Wind DirectionSSW (207 °)

Weather ElementTotal
Precipitation---
Cooling Degree Days7.5 (Base 65)
Growing Degree Days22.5 (Base 50)
Averaged from 20 records on April 10, 2014
WEATHER CONDITIONS BREAKOUT
WIND DIRECTION BREAKOUT
WEATHER BY HOUR - APRIL 10, 2014
[ °C ]   °F
Local TimeTemperatureDewpointHumidityBarometerVisibilityWind DirectionWind SpeedGust SpeedPrecipitationEventsConditions
1:55 AM62.6 °F1.4 °F9 %29.97 in10.0 miWSW (240°)11.5 mphMostly Cloudy
2:55 AM62.6 °F1.4 °F9 %29.96 in10.0 miWSW (240°)9.2 mphMostly Cloudy
3:55 AM62.6 °F1.4 °F9 %29.96 in10.0 miSSW (200°)3.5 mphMostly Cloudy
4:55 AM60.8 °F-0.4 °F8 %29.96 in10.0 miSSW (200°)2.3 mphMostly Cloudy
5:55 AM59.0 °F-4.0 °F8 %29.99 in10.0 miCalmMostly Cloudy
6:55 AM62.6 °F3.2 °F9 %30.02 in10.0 miSouth (180°)3.5 mphMostly Cloudy
7:55 AM71.6 °F-0.4 °F6 %30.03 in10.0 miCalmMostly Cloudy
8:55 AM73.4 °F-0.4 °F5 %30.03 in10.0 miCalmMostly Cloudy
12:55 PM84.2 °F-18.4 °F4 %29.95 in10.0 miSSW (210°)6.9 mphMostly Cloudy
1:55 PM86.0 °F-34.6 °F4 %29.93 in10.0 miWSW (250°)12.7 mph26.5 mphMostly Cloudy
2:55 PM84.2 °F-20.2 °F4 %29.91 in10.0 miWest (280°)10.4 mph20.7 mphMostly Cloudy
3:55 PM84.2 °F-13.0 °F4 %29.89 in10.0 miWNW (290°)10.4 mph21.9 mphMostly Cloudy
4:55 PM82.4 °F-22.0 °F4 %29.89 in10.0 miWest (280°)16.1 mphMostly Cloudy
5:55 PM80.6 °F-16.6 °F4 %29.91 in10.0 miWest (270°)15.0 mphMostly Cloudy
6:55 PM75.2 °F-13.0 °F4 %29.92 in10.0 miWSW (240°)12.7 mphMostly Cloudy
7:55 PM73.4 °F-11.2 °F4 %29.92 in10.0 miWSW (250°)12.7 mphMostly Cloudy
8:55 PM71.6 °F-11.2 °F4 %29.94 in10.0 miWSW (250°)11.5 mphOvercast
9:55 PM71.6 °F-9.4 °F4 %29.94 in10.0 miWest (260°)13.8 mphOvercast
10:55 PM69.8 °F5.0 °F8 %29.94 in10.0 miWSW (250°)16.1 mphOvercast
11:55 PM68.0 °F6.8 °F9 %29.94 in10.0 miWSW (250°)11.5 mphOvercast
Hourly data recorded from KFHU, located miles away from Tombstone, Arizona







STORIES FROM OUR PARTNERS